Time,TemperatureF,DewpointF,PressureIn,WindDirection,WindDirectionDegrees,WindSpeedMPH,WindSpeedGustMPH,Humidity,HourlyPrecipIn,Conditions,Clouds,dailyrainin,SoftwareType,DateUTC
2013-08-16 00:00:00,57.0,46.9,29.95,NW,323,7.0,14.0,69,0.00,,---,0.00,VWS V14.01,2013-08-16 07:00:00,
2013-08-16 00:05:00,56.9,46.8,29.95,NW,315,15.0,17.0,69,0.00,,---,0.00,VWS V14.01,2013-08-16 07:05:00,
2013-08-16 00:10:00,56.9,46.8,29.95,NW,325,12.0,17.0,69,0.00,,---,0.00,VWS V14.01,2013-08-16 07:10:00,
2013-08-16 00:15:00,56.9,46.8,29.95,NW,318,12.0,19.0,69,0.00,,---,0.00,VWS V14.01,2013-08-16 07:15:00,
2013-08-16 00:20:00,57.0,46.9,29.95,NW,321,11.0,19.0,69,0.00,,---,0.00,VWS V14.01,2013-08-16 07:20:00,
2013-08-16 00:25:00,57.0,46.9,29.94,NW,314,16.0,19.0,69,0.00,,---,0.00,VWS V14.01,2013-08-16 07:25:00,
2013-08-16 00:30:00,57.1,47.0,29.94,NW,314,7.0,14.0,69,0.00,,---,0.00,VWS V14.01,2013-08-16 07:30:00,
2013-08-16 00:35:00,57.2,47.1,29.95,WNW,282,5.0,14.0,69,0.00,,---,0.00,VWS V14.01,2013-08-16 07:35:00,
2013-08-16 00:40:00,57.2,47.1,29.95,NW,318,11.0,14.0,69,0.00,,---,0.00,VWS V14.01,2013-08-16 07:40:00,
2013-08-16 00:45:00,57.2,47.1,29.94,NW,321,11.0,16.0,69,0.00,,---,0.00,VWS V14.01,2013-08-16 07:45:00,
2013-08-16 00:50:00,57.2,47.1,29.95,North,360,10.0,16.0,69,0.00,,---,0.00,VWS V14.01,2013-08-16 07:50:00,
2013-08-16 00:55:00,57.2,47.1,29.94,North,360,7.0,16.0,69,0.00,,---,0.00,VWS V14.01,2013-08-16 07:55:00,
2013-08-16 01:00:00,57.2,47.1,29.94,NW,311,6.0,14.0,69,0.00,,---,0.00,VWS V14.01,2013-08-16 08:00:00,
2013-08-16 01:05:00,57.2,47.1,29.95,WNW,303,10.0,14.0,69,0.00,,---,0.00,VWS V14.01,2013-08-16 08:05:00,
2013-08-16 01:10:00,57.1,47.0,29.95,NW,313,13.0,15.0,69,0.00,,---,0.00,VWS V14.01,2013-08-16 08:10:00,
2013-08-16 01:15:00,57.1,47.0,29.95,West,281,10.0,15.0,69,0.00,,---,0.00,VWS V14.01,2013-08-16 08:15:00,
2013-08-16 01:20:00,57.1,47.0,29.94,NW,314,10.0,15.0,69,0.00,,---,0.00,VWS V14.01,2013-08-16 08:20:00,
2013-08-16 01:25:00,57.1,47.0,29.94,WNW,302,11.0,15.0,69,0.00,,---,0.00,VWS V14.01,2013-08-16 08:25:00,
2013-08-16 01:30:00,57.2,47.1,29.94,NW,318,12.0,13.0,69,0.00,,---,0.00,VWS V14.01,2013-08-16 08:30:00,
2013-08-16 01:35:00,57.1,47.0,29.94,NW,314,8.0,15.0,69,0.00,,---,0.00,VWS V14.01,2013-08-16 08:35:00,
2013-08-16 01:40:00,57.1,47.0,29.94,North,360,9.0,15.0,69,0.00,,---,0.00,VWS V14.01,2013-08-16 08:40:00,
2013-08-16 01:45:00,57.2,47.1,29.94,North,360,2.0,15.0,69,0.00,,---,0.00,VWS V14.01,2013-08-16 08:45:00,
2013-08-16 01:50:00,57.3,47.2,29.94,North,360,0.0,15.0,69,0.00,,---,0.00,VWS V14.01,2013-08-16 08:50:00,
2013-08-16 01:55:00,57.4,47.3,29.94,West,279,3.0,15.0,69,0.00,,---,0.00,VWS V14.01,2013-08-16 08:55:00,
2013-08-16 02:00:00,57.3,47.2,29.94,NW,315,1.0,6.0,69,0.00,,---,0.00,VWS V14.01,2013-08-16 09:00:00,
2013-08-16 02:05:00,57.3,47.2,29.94,WNW,301,4.0,10.0,69,0.00,,---,0.00,VWS V14.01,2013-08-16 09:05:00,
2013-08-16 02:10:00,57.2,47.1,29.94,WNW,302,1.0,10.0,69,0.00,,---,0.00,VWS V14.01,2013-08-16 09:10:00,
2013-08-16 02:15:00,57.2,47.1,29.94,NNW,331,0.0,10.0,69,0.00,,---,0.00,VWS V14.01,2013-08-16 09:15:00,
2013-08-16 02:20:00,57.2,47.1,29.94,NW,323,0.0,10.0,69,0.00,,---,0.00,VWS V14.01,2013-08-16 09:20:00,
2013-08-16 02:26:00,57.1,47.0,29.93,NW,317,1.0,10.0,69,0.00,,---,0.00,VWS V14.01,2013-08-16 09:26:00,
2013-08-16 02:30:00,57.0,46.9,29.93,NW,311,2.0,11.0,69,0.00,,---,0.00,VWS V14.01,2013-08-16 09:30:00,
2013-08-16 02:31:00,57.0,46.9,29.93,NW,307,0.0,10.0,69,0.00,,---,0.00,VWS V14.01,2013-08-16 09:31:00,
2013-08-16 02:36:00,57.1,47.0,29.93,NW,317,0.0,12.0,69,0.00,,---,0.00,VWS V14.01,2013-08-16 09:36:00,
2013-08-16 02:41:00,57.3,47.2,29.93,NW,313,0.0,12.0,69,0.00,,---,0.00,VWS V14.01,2013-08-16 09:41:00,
2013-08-16 02:46:00,57.5,47.4,29.94,NW,313,0.0,12.0,69,0.00,,---,0.00,VWS V14.01,2013-08-16 09:46:00,
2013-08-16 02:51:00,57.7,47.6,29.94,SW,229,0.0,12.0,69,0.00,,---,0.00,VWS V14.01,2013-08-16 09:51:00,
2013-08-16 02:56:00,57.6,47.5,29.93,SW,232,0.0,12.0,69,0.00,,---,0.00,VWS V14.01,2013-08-16 09:56:00,
2013-08-16 03:00:00,57.3,47.2,29.93,North,360,7.0,12.0,69,0.00,,---,0.00,VWS V14.01,2013-08-16 10:00:00,
2013-08-16 03:01:00,57.2,47.1,29.93,West,275,2.0,9.0,69,0.00,,---,0.00,VWS V14.01,2013-08-16 10:01:00,
2013-08-16 03:06:00,57.1,47.0,29.93,NW,320,0.0,9.0,69,0.00,,---,0.00,VWS V14.01,2013-08-16 10:06:00,
2013-08-16 03:11:00,57.0,46.9,29.94,North,360,0.0,9.0,69,0.00,,---,0.00,VWS V14.01,2013-08-16 10:11:00,
2013-08-16 03:16:00,56.8,46.8,29.93,North,360,0.0,9.0,69,0.00,,---,0.00,VWS V14.01,2013-08-16 10:16:00,
2013-08-16 03:21:00,56.9,46.8,29.93,NW,306,0.0,9.0,69,0.00,,---,0.00,VWS V14.01,2013-08-16 10:21:00,
2013-08-16 03:26:00,57.0,46.9,29.93,North,360,0.0,9.0,69,0.00,,---,0.00,VWS V14.01,2013-08-16 10:26:00,
2013-08-16 03:30:00,57.0,46.9,29.94,North,360,0.0,9.0,69,0.00,,---,0.00,VWS V14.01,2013-08-16 10:30:00,
2013-08-16 03:31:00,56.9,46.8,29.93,North,360,0.0,0.0,69,0.00,,---,0.00,VWS V14.01,2013-08-16 10:31:00,
2013-08-16 03:36:00,56.9,46.8,29.94,North,360,0.0,0.0,69,0.00,,---,0.00,VWS V14.01,2013-08-16 10:36:00,
2013-08-16 03:41:00,57.0,46.9,29.94,North,360,0.0,0.0,69,0.00,,---,0.00,VWS V14.01,2013-08-16 10:41:00,
2013-08-16 03:46:00,57.0,46.9,29.94,North,360,0.0,0.0,69,0.00,,---,0.00,VWS V14.01,2013-08-16 10:46:00,
2013-08-16 03:51:00,56.9,46.8,29.94,North,360,0.0,3.0,69,0.00,,---,0.00,VWS V14.01,2013-08-16 10:51:00,
2013-08-16 03:56:00,56.9,46.8,29.94,North,360,0.0,3.0,69,0.00,,---,0.00,VWS V14.01,2013-08-16 10:56:00,
2013-08-16 04:00:00,56.9,46.8,29.93,North,360,0.0,3.0,69,0.00,,---,0.00,VWS V14.01,2013-08-16 11:00:00,
2013-08-16 04:01:00,56.9,46.8,29.94,North,360,0.0,0.0,69,0.00,,---,0.00,VWS V14.01,2013-08-16 11:01:00,
2013-08-16 04:06:00,56.8,46.8,29.94,North,360,0.0,0.0,69,0.00,,---,0.00,VWS V14.01,2013-08-16 11:06:00,
2013-08-16 04:11:00,56.6,46.6,29.93,North,360,0.0,4.0,69,0.00,,---,0.00,VWS V14.01,2013-08-16 11:11:00,
2013-08-16 04:16:00,56.6,46.6,29.93,North,360,0.0,4.0,69,0.00,,---,0.00,VWS V14.01,2013-08-16 11:16:00,
2013-08-16 04:21:00,56.7,46.7,29.93,North,360,0.0,4.0,69,0.00,,---,0.00,VWS V14.01,2013-08-16 11:21:00,
2013-08-16 04:26:00,56.7,46.7,29.93,WNW,286,0.0,4.0,69,0.00,,---,0.00,VWS V14.01,2013-08-16 11:26:00,
2013-08-16 04:30:00,56.6,46.6,29.93,WNW,284,0.0,4.0,69,0.00,,---,0.00,VWS V14.01,2013-08-16 11:30:00,
2013-08-16 04:31:00,56.6,46.6,29.93,NW,312,0.0,4.0,69,0.00,,---,0.00,VWS V14.01,2013-08-16 11:31:00,
2013-08-16 04:36:00,56.5,46.5,29.94,North,360,0.0,4.0,69,0.00,,---,0.00,VWS V14.01,2013-08-16 11:36:00,
2013-08-16 04:41:00,56.6,46.6,29.94,WNW,284,0.0,4.0,69,0.00,,---,0.00,VWS V14.01,2013-08-16 11:41:00,
2013-08-16 04:46:00,56.7,46.7,29.94,WNW,284,0.0,4.0,69,0.00,,---,0.00,VWS V14.01,2013-08-16 11:46:00,
2013-08-16 04:51:00,56.7,46.7,29.94,NW,309,0.0,5.0,69,0.00,,---,0.00,VWS V14.01,2013-08-16 11:51:00,
2013-08-16 04:56:00,56.7,46.7,29.94,NW,311,0.0,5.0,69,0.00,,---,0.00,VWS V14.01,2013-08-16 11:56:00,
2013-08-16 05:00:00,56.6,46.6,29.94,NW,310,0.0,5.0,69,0.00,,---,0.00,VWS V14.01,2013-08-16 12:00:00,
2013-08-16 05:01:00,56.6,46.6,29.94,NW,315,1.0,4.0,69,0.00,,---,0.00,VWS V14.01,2013-08-16 12:01:00,
2013-08-16 05:06:00,56.5,46.5,29.94,NNW,327,0.0,6.0,69,0.00,,---,0.00,VWS V14.01,2013-08-16 12:06:00,
2013-08-16 05:11:00,56.4,46.4,29.94,North,360,0.0,7.0,69,0.00,,---,0.00,VWS V14.01,2013-08-16 12:11:00,
2013-08-16 05:16:00,56.4,46.4,29.94,NNW,335,0.0,7.0,69,0.00,,---,0.00,VWS V14.01,2013-08-16 12:16:00,
2013-08-16 05:21:00,56.5,46.5,29.94,WNW,285,1.0,7.0,69,0.00,,---,0.00,VWS V14.01,2013-08-16 12:21:00,
2013-08-16 05:26:00,56.4,46.4,29.94,NW,325,4.0,9.0,69,0.00,,---,0.00,VWS V14.01,2013-08-16 12:26:00,
2013-08-16 05:30:00,56.5,46.5,29.94,North,360,0.0,9.0,69,0.00,,---,0.00,VWS V14.01,2013-08-16 12:30:00,
2013-08-16 05:31:00,56.5,46.5,29.94,NW,314,0.0,9.0,69,0.01,,---,0.01,VWS V14.01,2013-08-16 12:31:00,
2013-08-16 05:36:00,56.6,46.6,29.94,West,277,0.0,9.0,69,0.01,,---,0.01,VWS V14.01,2013-08-16 12:36:00,
2013-08-16 05:41:00,56.4,46.4,29.94,WSW,249,0.0,10.0,69,0.01,,---,0.01,VWS V14.01,2013-08-16 12:41:00,
2013-08-16 05:46:00,56.4,46.4,29.94,WNW,296,0.0,10.0,69,0.01,,---,0.01,VWS V14.01,2013-08-16 12:46:00,
2013-08-16 05:52:00,56.4,46.4,29.94,NW,309,2.0,11.0,69,0.01,,---,0.01,VWS V14.01,2013-08-16 12:52:00,
2013-08-16 05:57:00,56.4,46.4,29.94,NW,306,6.0,11.0,69,0.01,,---,0.01,VWS V14.01,2013-08-16 12:57:00,
2013-08-16 06:00:00,56.4,46.4,29.94,NNW,327,6.0,12.0,69,0.01,,---,0.01,VWS V14.01,2013-08-16 13:00:00,
2013-08-16 06:02:00,56.4,46.4,29.94,NW,313,7.0,14.0,69,0.01,,---,0.01,VWS V14.01,2013-08-16 13:02:00,
2013-08-16 06:07:00,56.3,46.3,29.94,WNW,303,11.0,14.0,69,0.01,,---,0.01,VWS V14.01,2013-08-16 13:07:00,
2013-08-16 06:12:00,56.2,46.6,29.94,NW,305,7.0,14.0,70,0.01,,---,0.01,VWS V14.01,2013-08-16 13:12:00,
2013-08-16 06:17:00,56.1,46.5,29.94,NW,306,5.0,14.0,70,0.01,,---,0.01,VWS V14.01,2013-08-16 13:17:00,
2013-08-16 06:22:00,56.1,46.5,29.94,NW,318,12.0,15.0,70,0.01,,---,0.01,VWS V14.01,2013-08-16 13:22:00,
2013-08-16 06:27:00,56.1,46.5,29.95,NW,306,10.0,15.0,70,0.01,,---,0.01,VWS V14.01,2013-08-16 13:27:00,
2013-08-16 06:30:00,56.1,46.5,29.95,NW,311,13.0,15.0,70,0.01,,---,0.01,VWS V14.01,2013-08-16 13:30:00,
2013-08-16 06:32:00,56.2,46.6,29.95,NW,304,7.0,15.0,70,0.01,,---,0.01,VWS V14.01,2013-08-16 13:32:00,
2013-08-16 06:37:00,56.2,46.6,29.94,WNW,284,5.0,15.0,70,0.01,,---,0.01,VWS V14.01,2013-08-16 13:37:00,
2013-08-16 06:42:00,56.4,46.4,29.94,NW,304,7.0,15.0,69,0.01,,---,0.01,VWS V14.01,2013-08-16 13:42:00,
2013-08-16 06:47:00,56.5,46.5,29.94,WNW,286,5.0,15.0,69,0.01,,---,0.01,VWS V14.01,2013-08-16 13:47:00,
2013-08-16 06:52:00,56.5,46.5,29.94,NNW,336,9.0,15.0,69,0.01,,---,0.01,VWS V14.01,2013-08-16 13:52:00,
2013-08-16 06:57:00,56.4,46.4,29.95,WNW,282,2.0,15.0,69,0.01,,---,0.01,VWS V14.01,2013-08-16 13:57:00,
2013-08-16 07:00:00,56.4,46.4,29.95,NW,313,3.0,15.0,69,0.01,,---,0.01,VWS V14.01,2013-08-16 14:00:00,
2013-08-16 07:02:00,56.4,46.4,29.95,NNW,331,0.0,10.0,69,0.00,,---,0.01,VWS V14.01,2013-08-16 14:02:00,
2013-08-16 07:07:00,56.5,46.5,29.95,WNW,302,0.0,10.0,69,0.00,,---,0.01,VWS V14.01,2013-08-16 14:07:00,
2013-08-16 07:12:00,56.7,46.7,29.95,WNW,283,5.0,10.0,69,0.00,,---,0.01,VWS V14.01,2013-08-16 14:12:00,
2013-08-16 07:17:00,56.6,46.6,29.95,West,271,0.0,10.0,69,0.00,,---,0.01,VWS V14.01,2013-08-16 14:17:00,
2013-08-16 07:22:00,56.7,46.7,29.95,NW,313,0.0,13.0,69,0.00,,---,0.01,VWS V14.01,2013-08-16 14:22:00,
2013-08-16 07:27:00,56.8,46.8,29.96,NW,317,5.0,13.0,69,0.00,,---,0.01,VWS V14.01,2013-08-16 14:27:00,
2013-08-16 07:30:00,56.7,47.0,29.96,North,355,10.0,13.0,70,0.00,,---,0.01,VWS V14.01,2013-08-16 14:30:00,
2013-08-16 07:32:00,56.7,47.0,29.96,NW,311,2.0,11.0,70,0.00,,---,0.01,VWS V14.01,2013-08-16 14:32:00,
2013-08-16 07:37:00,56.9,46.8,29.96,NW,325,5.0,11.0,69,0.00,,---,0.01,VWS V14.01,2013-08-16 14:37:00,
2013-08-16 07:42:00,57.1,47.0,29.95,WNW,284,0.0,12.0,69,0.00,,---,0.01,VWS V14.01,2013-08-16 14:42:00,
2013-08-16 07:47:00,57.2,47.1,29.96,WNW,286,3.0,12.0,69,0.00,,---,0.01,VWS V14.01,2013-08-16 14:47:00,
2013-08-16 07:52:00,57.3,47.2,29.96,North,360,5.0,12.0,69,0.00,,---,0.01,VWS V14.01,2013-08-16 14:52:00,
2013-08-16 07:57:00,57.4,47.3,29.96,NNW,336,0.0,12.0,69,0.00,,---,0.01,VWS V14.01,2013-08-16 14:57:00,
2013-08-16 08:00:00,57.4,47.3,29.96,NNW,333,0.0,12.0,69,0.00,,---,0.01,VWS V14.01,2013-08-16 15:00:00,
2013-08-16 08:02:00,57.4,47.3,29.96,WNW,302,0.0,10.0,69,0.00,,---,0.01,VWS V14.01,2013-08-16 15:02:00,
2013-08-16 08:07:00,57.7,47.6,29.96,WNW,285,4.0,10.0,69,0.00,,---,0.01,VWS V14.01,2013-08-16 15:07:00,
2013-08-16 08:12:00,57.7,47.6,29.97,WNW,283,0.0,10.0,69,0.00,,---,0.01,VWS V14.01,2013-08-16 15:12:00,
2013-08-16 08:17:00,57.9,47.8,29.97,WNW,283,4.0,10.0,69,0.00,,---,0.01,VWS V14.01,2013-08-16 15:17:00,
2013-08-16 08:22:00,57.6,47.5,29.97,West,280,2.0,10.0,69,0.00,,---,0.01,VWS V14.01,2013-08-16 15:22:00,
2013-08-16 08:27:00,57.9,47.8,29.97,West,267,0.0,10.0,69,0.00,,---,0.01,VWS V14.01,2013-08-16 15:27:00,
2013-08-16 08:30:00,57.9,47.8,29.97,NW,313,4.0,10.0,69,0.00,,---,0.01,VWS V14.01,2013-08-16 15:30:00,
2013-08-16 08:32:00,57.8,47.7,29.97,WNW,303,0.0,7.0,69,0.00,,---,0.01,VWS V14.01,2013-08-16 15:32:00,
2013-08-16 08:37:00,57.3,47.2,29.97,NW,308,2.0,9.0,69,0.00,,---,0.01,VWS V14.01,2013-08-16 15:37:00,
2013-08-16 08:42:00,57.4,47.3,29.97,North,360,0.0,11.0,69,0.00,,---,0.01,VWS V14.01,2013-08-16 15:42:00,
2013-08-16 08:47:00,57.8,47.7,29.97,NW,313,10.0,11.0,69,0.00,,---,0.01,VWS V14.01,2013-08-16 15:47:00,
2013-08-16 08:52:00,57.6,47.5,29.97,NW,308,12.0,14.0,69,0.00,,---,0.01,VWS V14.01,2013-08-16 15:52:00,
2013-08-16 08:57:00,57.7,47.6,29.97,NW,306,6.0,14.0,69,0.00,,---,0.01,VWS V14.01,2013-08-16 15:57:00,
2013-08-16 09:00:00,57.8,47.7,29.97,NW,321,11.0,14.0,69,0.00,,---,0.01,VWS V14.01,2013-08-16 16:00:00,
2013-08-16 09:02:00,57.7,47.6,29.97,NW,318,10.0,14.0,69,0.00,,---,0.01,VWS V14.01,2013-08-16 16:02:00,
2013-08-16 09:07:00,57.8,47.7,29.97,NW,313,12.0,14.0,69,0.00,,---,0.01,VWS V14.01,2013-08-16 16:07:00,
2013-08-16 09:12:00,57.8,47.7,29.97,NW,315,6.0,14.0,69,0.00,,---,0.01,VWS V14.01,2013-08-16 16:12:00,
2013-08-16 09:17:00,57.8,47.7,29.97,North,360,0.0,14.0,69,0.00,,---,0.01,VWS V14.01,2013-08-16 16:17:00,
2013-08-16 09:22:00,58.4,48.3,29.97,NW,315,0.0,14.0,69,0.00,,---,0.01,VWS V14.01,2013-08-16 16:22:00,
2013-08-16 09:27:00,58.4,48.3,29.97,NW,304,3.0,14.0,69,0.00,,---,0.01,VWS V14.01,2013-08-16 16:27:00,
2013-08-16 09:30:00,58.4,48.3,29.97,West,265,0.0,14.0,69,0.00,,---,0.01,VWS V14.01,2013-08-16 16:30:00,
2013-08-16 09:32:00,58.6,48.5,29.97,West,281,0.0,11.0,69,0.00,,---,0.01,VWS V14.01,2013-08-16 16:32:00,
2013-08-16 09:37:00,58.8,48.7,29.97,NW,314,5.0,11.0,69,0.00,,---,0.01,VWS V14.01,2013-08-16 16:37:00,
2013-08-16 09:43:00,59.0,48.9,29.98,South,184,4.0,11.0,69,0.00,,---,0.01,VWS V14.01,2013-08-16 16:43:00,
2013-08-16 09:51:00,59.0,48.9,29.98,NW,317,0.0,0.0,69,0.00,,---,0.01,VWS V14.01,2013-08-16 16:51:00,
2013-08-16 09:56:00,59.3,49.1,29.98,SSW,213,0.0,1.0,69,0.00,,---,0.01,VWS V14.01,2013-08-16 16:56:00,
2013-08-16 10:00:00,59.0,48.9,29.98,NW,313,0.0,6.0,69,0.00,,---,0.01,VWS V14.01,2013-08-16 17:00:00,
2013-08-16 10:01:00,59.0,48.9,29.98,NW,304,0.0,7.0,69,0.00,,---,0.01,VWS V14.01,2013-08-16 17:01:00,
2013-08-16 10:06:00,59.0,48.9,29.98,West,267,0.0,7.0,69,0.00,,---,0.01,VWS V14.01,2013-08-16 17:06:00,
2013-08-16 10:11:00,59.7,49.5,29.98,SW,217,0.0,7.0,69,0.00,,---,0.01,VWS V14.01,2013-08-16 17:11:00,
2013-08-16 10:16:00,59.9,49.3,29.98,West,280,0.0,7.0,68,0.00,,---,0.01,VWS V14.01,2013-08-16 17:16:00,
2013-08-16 10:21:00,59.6,49.4,29.98,ESE,116,0.0,7.0,69,0.00,,---,0.01,VWS V14.01,2013-08-16 17:21:00,
2013-08-16 10:26:00,59.8,49.2,29.98,WNW,282,0.0,7.0,68,0.00,,---,0.01,VWS V14.01,2013-08-16 17:26:00,
2013-08-16 10:30:00,59.9,49.3,29.98,WNW,284,1.0,7.0,68,0.00,,---,0.01,VWS V14.01,2013-08-16 17:30:00,
2013-08-16 10:31:00,59.9,49.3,29.98,WNW,286,0.0,6.0,68,0.00,,---,0.01,VWS V14.01,2013-08-16 17:31:00,
2013-08-16 10:36:00,60.1,49.5,29.98,NW,314,5.0,10.0,68,0.00,,---,0.01,VWS V14.01,2013-08-16 17:36:00,
2013-08-16 10:41:00,60.3,49.7,29.98,NW,315,1.0,10.0,68,0.00,,---,0.01,VWS V14.01,2013-08-16 17:41:00,
2013-08-16 10:46:00,60.3,49.7,29.98,North,360,7.0,10.0,68,0.00,,---,0.01,VWS V14.01,2013-08-16 17:46:00,
2013-08-16 10:51:00,60.6,50.0,29.98,NW,314,7.0,13.0,68,0.00,,---,0.01,VWS V14.01,2013-08-16 17:51:00,
2013-08-16 10:56:00,60.4,49.8,29.98,NW,322,9.0,13.0,68,0.00,,---,0.01,VWS V14.01,2013-08-16 17:56:00,
2013-08-16 11:00:00,60.1,49.9,29.98,NW,321,12.0,16.0,69,0.00,,---,0.01,VWS V14.01,2013-08-16 18:00:00,
2013-08-16 11:01:00,60.1,49.9,29.98,NW,312,9.0,13.0,69,0.00,,---,0.01,VWS V14.01,2013-08-16 18:01:00,
2013-08-16 11:06:00,60.5,50.3,29.98,NW,324,7.0,13.0,69,0.00,,---,0.01,VWS V14.01,2013-08-16 18:06:00,
2013-08-16 11:11:00,60.9,50.7,29.98,West,275,0.0,13.0,69,0.00,,---,0.01,VWS V14.01,2013-08-16 18:11:00,
2013-08-16 11:16:00,61.6,51.7,29.98,WNW,291,0.0,13.0,70,0.00,,---,0.01,VWS V14.01,2013-08-16 18:16:00,
2013-08-16 11:21:00,62.2,53.5,29.98,North,360,11.0,16.0,73,0.00,,---,0.01,VWS V14.01,2013-08-16 18:21:00,
2013-08-16 11:26:00,61.1,55.9,29.98,NW,320,6.0,16.0,83,0.00,,---,0.01,VWS V14.01,2013-08-16 18:26:00,
2013-08-16 11:30:00,60.9,56.0,29.97,NW,317,11.0,16.0,84,0.00,,---,0.01,VWS V14.01,2013-08-16 18:30:00,
2013-08-16 11:31:00,60.8,55.9,29.98,North,360,9.0,16.0,84,0.00,,---,0.01,VWS V14.01,2013-08-16 18:31:00,
2013-08-16 11:36:00,60.6,56.1,29.97,North,355,13.0,21.0,85,0.00,,---,0.01,VWS V14.01,2013-08-16 18:36:00,
2013-08-16 11:41:00,60.8,55.9,29.97,NNW,337,16.0,21.0,84,0.00,,---,0.01,VWS V14.01,2013-08-16 18:41:00,
2013-08-16 11:46:00,60.9,56.4,29.97,NW,313,14.0,21.0,85,0.00,,---,0.01,VWS V14.01,2013-08-16 18:46:00,
2013-08-16 11:51:00,61.3,57.4,29.98,NNW,331,10.0,21.0,87,0.00,,---,0.01,VWS V14.01,2013-08-16 18:51:00,
2013-08-16 11:56:00,61.4,57.5,29.98,NW,326,13.0,21.0,87,0.00,,---,0.01,VWS V14.01,2013-08-16 18:56:00,
2013-08-16 12:00:00,61.5,57.6,29.98,NW,324,13.0,21.0,87,0.00,,---,0.01,VWS V14.01,2013-08-16 19:00:00,
2013-08-16 12:01:00,61.6,57.7,29.97,NW,314,7.0,19.0,87,0.00,,---,0.01,VWS V14.01,2013-08-16 19:01:00,
2013-08-16 12:06:00,61.7,58.1,29.97,NW,317,13.0,22.0,88,0.00,,---,0.01,VWS V14.01,2013-08-16 19:06:00,
2013-08-16 12:12:00,61.3,57.4,29.98,NW,304,14.0,23.0,87,0.00,,---,0.01,VWS V14.01,2013-08-16 19:12:00,
2013-08-16 12:17:00,61.4,57.5,29.98,NW,317,16.0,23.0,87,0.00,,---,0.01,VWS V14.01,2013-08-16 19:17:00,
2013-08-16 12:22:00,61.7,58.1,29.98,NNW,333,14.0,23.0,88,0.00,,---,0.01,VWS V14.01,2013-08-16 19:22:00,
2013-08-16 12:27:00,61.3,57.7,29.98,NW,311,13.0,23.0,88,0.00,,---,0.01,VWS V14.01,2013-08-16 19:27:00,
2013-08-16 12:30:00,61.4,57.8,29.98,NW,307,12.0,23.0,88,0.00,,---,0.01,VWS V14.01,2013-08-16 19:30:00,
2013-08-16 12:32:00,61.3,57.4,29.97,NW,315,15.0,20.0,87,0.00,,---,0.01,VWS V14.01,2013-08-16 19:32:00,
2013-08-16 12:37:00,60.9,57.0,29.97,NW,313,20.0,21.0,87,0.00,,---,0.01,VWS V14.01,2013-08-16 19:37:00,
2013-08-16 12:42:00,61.5,57.9,29.97,NW,311,16.0,21.0,88,0.00,,---,0.01,VWS V14.01,2013-08-16 19:42:00,
2013-08-16 12:47:00,62.0,58.4,29.97,NW,319,18.0,21.0,88,0.00,,---,0.01,VWS V14.01,2013-08-16 19:47:00,
2013-08-16 12:52:00,61.8,58.2,29.98,NW,310,11.0,21.0,88,0.00,,---,0.01,VWS V14.01,2013-08-16 19:52:00,
2013-08-16 12:57:00,61.1,57.5,29.98,NW,326,15.0,24.0,88,0.00,,---,0.01,VWS V14.01,2013-08-16 19:57:00,
2013-08-16 13:00:00,60.9,57.3,29.97,North,360,18.0,24.0,88,0.00,,---,0.01,VWS V14.01,2013-08-16 20:00:00,
2013-08-16 13:02:00,61.0,57.1,29.97,NW,317,15.0,22.0,87,0.00,,---,0.01,VWS V14.01,2013-08-16 20:02:00,
2013-08-16 13:07:00,61.0,57.4,29.97,NW,324,15.0,22.0,88,0.00,,---,0.01,VWS V14.01,2013-08-16 20:07:00,
2013-08-16 13:12:00,61.4,57.8,29.97,NNW,331,15.0,22.0,88,0.00,,---,0.01,VWS V14.01,2013-08-16 20:12:00,
2013-08-16 13:17:00,61.3,57.7,29.97,NW,322,10.0,24.0,88,0.00,,---,0.01,VWS V14.01,2013-08-16 20:17:00,
2013-08-16 13:22:00,61.6,58.0,29.97,NW,313,16.0,24.0,88,0.00,,---,0.01,VWS V14.01,2013-08-16 20:22:00,
2013-08-16 13:27:00,61.0,57.4,29.97,North,360,20.0,24.0,88,0.00,,---,0.01,VWS V14.01,2013-08-16 20:27:00,
2013-08-16 13:30:00,60.7,57.1,29.97,NW,314,19.0,24.0,88,0.00,,---,0.01,VWS V14.01,2013-08-16 20:30:00,
2013-08-16 13:32:00,60.1,56.5,29.97,NW,318,11.0,25.0,88,0.00,,---,0.01,VWS V14.01,2013-08-16 20:32:00,
2013-08-16 13:37:00,60.0,56.1,29.97,NW,326,15.0,25.0,87,0.00,,---,0.01,VWS V14.01,2013-08-16 20:37:00,
2013-08-16 13:42:00,60.2,56.0,29.97,NW,311,16.0,25.0,86,0.00,,---,0.01,VWS V14.01,2013-08-16 20:42:00,
2013-08-16 13:47:00,60.4,56.5,29.96,NW,316,18.0,25.0,87,0.00,,---,0.01,VWS V14.01,2013-08-16 20:47:00,
2013-08-16 13:52:00,60.5,56.6,29.96,NNW,340,25.0,26.0,87,0.00,,---,0.01,VWS V14.01,2013-08-16 20:52:00,
2013-08-16 13:57:00,60.9,57.0,29.96,NW,314,22.0,26.0,87,0.00,,---,0.01,VWS V14.01,2013-08-16 20:57:00,
2013-08-16 14:00:00,61.1,57.2,29.96,WNW,286,17.0,26.0,87,0.00,,---,0.01,VWS V14.01,2013-08-16 21:00:00,
2013-08-16 14:02:00,61.0,57.4,29.96,NW,318,19.0,24.0,88,0.00,,---,0.01,VWS V14.01,2013-08-16 21:02:00,
2013-08-16 14:07:00,60.7,56.8,29.96,NNW,330,13.0,26.0,87,0.00,,---,0.01,VWS V14.01,2013-08-16 21:07:00,
2013-08-16 14:12:00,60.9,57.0,29.97,NW,314,22.0,26.0,87,0.00,,---,0.01,VWS V14.01,2013-08-16 21:12:00,
2013-08-16 14:17:00,60.9,57.0,29.96,NNW,331,19.0,28.0,87,0.00,,---,0.01,VWS V14.01,2013-08-16 21:17:00,
2013-08-16 14:22:00,60.3,56.4,29.96,NW,317,21.0,28.0,87,0.00,,---,0.01,VWS V14.01,2013-08-16 21:22:00,
2013-08-16 14:27:00,60.1,55.9,29.96,WNW,286,17.0,28.0,86,0.00,,---,0.01,VWS V14.01,2013-08-16 21:27:00,
2013-08-16 14:30:00,60.1,55.9,29.96,NW,321,19.0,28.0,86,0.00,,---,0.01,VWS V14.01,2013-08-16 21:30:00,
2013-08-16 14:32:00,60.0,55.5,29.96,NW,314,19.0,26.0,85,0.00,,---,0.01,VWS V14.01,2013-08-16 21:32:00,
2013-08-16 14:37:00,60.3,56.1,29.96,NW,309,21.0,26.0,86,0.00,,---,0.01,VWS V14.01,2013-08-16 21:37:00,
2013-08-16 14:42:00,60.2,56.0,29.96,NW,323,22.0,26.0,86,0.00,,---,0.01,VWS V14.01,2013-08-16 21:42:00,
2013-08-16 14:47:00,60.3,55.8,29.96,NW,318,23.0,27.0,85,0.00,,---,0.01,VWS V14.01,2013-08-16 21:47:00,
2013-08-16 14:52:00,60.1,55.9,29.96,NW,306,17.0,27.0,86,0.00,,---,0.01,VWS V14.01,2013-08-16 21:52:00,
2013-08-16 14:57:00,60.0,55.5,29.96,NW,312,21.0,27.0,85,0.00,,---,0.01,VWS V14.01,2013-08-16 21:57:00,
2013-08-16 15:00:00,59.9,55.4,29.96,NNW,327,17.0,27.0,85,0.00,,---,0.01,VWS V14.01,2013-08-16 22:00:00,
2013-08-16 15:02:00,59.8,55.0,29.96,NW,304,16.0,24.0,84,0.00,,---,0.01,VWS V14.01,2013-08-16 22:02:00,
2013-08-16 15:07:00,60.1,55.3,29.96,NW,306,14.0,25.0,84,0.00,,---,0.01,VWS V14.01,2013-08-16 22:07:00,
2013-08-16 15:12:00,60.2,55.7,29.96,NW,315,22.0,27.0,85,0.00,,---,0.01,VWS V14.01,2013-08-16 22:12:00,
2013-08-16 15:17:00,60.2,55.7,29.96,North,360,23.0,27.0,85,0.00,,---,0.01,VWS V14.01,2013-08-16 22:17:00,
2013-08-16 15:22:00,60.2,55.3,29.96,NW,311,17.0,27.0,84,0.00,,---,0.01,VWS V14.01,2013-08-16 22:22:00,
2013-08-16 15:27:00,60.6,56.1,29.95,West,279,19.0,27.0,85,0.00,,---,0.01,VWS V14.01,2013-08-16 22:27:00,
2013-08-16 15:30:00,60.5,56.0,29.95,NW,304,18.0,27.0,85,0.00,,---,0.01,VWS V14.01,2013-08-16 22:30:00,
2013-08-16 15:32:00,60.6,56.1,29.95,NW,315,21.0,24.0,85,0.00,,---,0.01,VWS V14.01,2013-08-16 22:32:00,
2013-08-16 15:37:00,60.3,55.8,29.96,NW,306,19.0,24.0,85,0.00,,---,0.01,VWS V14.01,2013-08-16 22:37:00,
2013-08-16 15:42:00,60.5,55.7,29.95,NNW,328,21.0,24.0,84,0.00,,---,0.01,VWS V14.01,2013-08-16 22:42:00,
2013-08-16 15:47:00,60.4,55.5,29.95,NW,304,21.0,25.0,84,0.00,,---,0.01,VWS V14.01,2013-08-16 22:47:00,
2013-08-16 15:52:00,60.4,55.2,29.95,NW,304,15.0,27.0,83,0.00,,---,0.01,VWS V14.01,2013-08-16 22:52:00,
2013-08-16 15:58:00,60.4,55.2,29.95,NW,319,21.0,27.0,83,0.00,,---,0.01,VWS V14.01,2013-08-16 22:58:00,
2013-08-16 16:00:00,60.3,55.5,29.95,NW,319,17.0,27.0,84,0.00,,---,0.01,VWS V14.01,2013-08-16 23:00:00,
2013-08-16 16:03:00,60.2,55.0,29.95,NW,323,22.0,24.0,83,0.00,,---,0.01,VWS V14.01,2013-08-16 23:03:00,
2013-08-16 16:08:00,59.9,54.4,29.95,NW,319,20.0,24.0,82,0.00,,---,0.01,VWS V14.01,2013-08-16 23:08:00,
2013-08-16 16:13:00,59.9,54.4,29.95,WNW,286,23.0,24.0,82,0.00,,---,0.01,VWS V14.01,2013-08-16 23:13:00,
2013-08-16 16:18:00,59.5,54.0,29.95,NW,317,21.0,26.0,82,0.00,,---,0.01,VWS V14.01,2013-08-16 23:18:00,
2013-08-16 16:23:00,59.5,53.3,29.95,North,360,21.0,26.0,80,0.00,,---,0.01,VWS V14.01,2013-08-16 23:23:00,
2013-08-16 16:28:00,59.3,53.1,29.94,NW,305,14.0,26.0,80,0.00,,---,0.01,VWS V14.01,2013-08-16 23:28:00,
2013-08-16 16:30:00,59.1,53.3,29.94,NW,316,18.0,26.0,81,0.00,,---,0.01,VWS V14.01,2013-08-16 23:30:00,
2013-08-16 16:33:00,59.0,52.8,29.94,NW,323,20.0,26.0,80,0.00,,---,0.01,VWS V14.01,2013-08-16 23:33:00,
2013-08-16 16:38:00,59.2,52.7,29.94,NW,313,17.0,26.0,79,0.00,,---,0.01,VWS V14.01,2013-08-16 23:38:00,
2013-08-16 16:43:00,59.0,52.5,29.94,NNW,331,18.0,26.0,79,0.00,,---,0.01,VWS V14.01,2013-08-16 23:43:00,
2013-08-16 16:48:00,59.2,52.3,29.94,NW,306,24.0,26.0,78,0.00,,---,0.01,VWS V14.01,2013-08-16 23:48:00,
2013-08-16 16:53:00,59.0,51.8,29.94,WNW,284,19.0,27.0,77,0.00,,---,0.01,VWS V14.01,2013-08-16 23:53:00,
2013-08-16 16:58:00,59.0,51.8,29.94,NW,313,13.0,27.0,77,0.00,,---,0.01,VWS V14.01,2013-08-16 23:58:00,
2013-08-16 17:00:00,59.0,51.8,29.94,NW,317,14.0,27.0,77,0.00,,---,0.01,VWS V14.01,2013-08-17 00:00:00,
2013-08-16 17:03:00,59.0,51.5,29.94,NW,322,25.0,27.0,76,0.00,,---,0.01,VWS V14.01,2013-08-17 00:03:00,
2013-08-16 17:08:00,58.7,50.8,29.93,NW,318,28.0,28.0,75,0.00,,---,0.01,VWS V14.01,2013-08-17 00:08:00,
2013-08-16 17:13:00,58.6,50.3,29.93,NW,314,19.0,28.0,74,0.00,,---,0.01,VWS V14.01,2013-08-17 00:13:00,
2013-08-16 17:18:00,58.5,49.9,29.94,NW,320,20.0,28.0,73,0.00,,---,0.01,VWS V14.01,2013-08-17 00:18:00,
2013-08-16 17:23:00,58.5,49.9,29.94,NW,313,23.0,28.0,73,0.00,,---,0.01,VWS V14.01,2013-08-17 00:23:00,
2013-08-16 17:28:00,58.5,49.5,29.94,NW,315,23.0,28.0,72,0.00,,---,0.01,VWS V14.01,2013-08-17 00:28:00,
2013-08-16 17:30:00,58.4,49.4,29.94,NW,313,16.0,28.0,72,0.00,,---,0.01,VWS V14.01,2013-08-17 00:30:00,
2013-08-16 17:33:00,58.4,49.4,29.93,NNW,330,16.0,27.0,72,0.00,,---,0.01,VWS V14.01,2013-08-17 00:33:00,
2013-08-16 17:38:00,58.4,49.4,29.93,NNW,331,19.0,27.0,72,0.00,,---,0.01,VWS V14.01,2013-08-17 00:38:00,
2013-08-16 17:43:00,58.3,49.3,29.93,NW,304,21.0,27.0,72,0.00,,---,0.01,VWS V14.01,2013-08-17 00:43:00,
2013-08-16 17:48:00,58.3,49.0,29.94,NW,313,22.0,27.0,71,0.00,,---,0.01,VWS V14.01,2013-08-17 00:48:00,
2013-08-16 17:53:00,58.3,49.0,29.94,NW,313,15.0,27.0,71,0.00,,---,0.01,VWS V14.01,2013-08-17 00:53:00,
2013-08-16 17:58:00,58.4,49.0,29.93,North,360,17.0,27.0,71,0.00,,---,0.01,VWS V14.01,2013-08-17 00:58:00,
2013-08-16 18:00:00,58.4,49.0,29.93,NW,311,23.0,27.0,71,0.00,,---,0.01,VWS V14.01,2013-08-17 01:00:00,
2013-08-16 18:03:00,58.2,48.8,29.93,NW,325,15.0,24.0,71,0.00,,---,0.01,VWS V14.01,2013-08-17 01:03:00,
2013-08-16 18:08:00,58.2,48.8,29.93,West,267,7.0,24.0,71,0.00,,---,0.01,VWS V14.01,2013-08-17 01:08:00,
2013-08-16 18:13:00,58.0,48.7,29.93,NW,314,18.0,24.0,71,0.00,,---,0.01,VWS V14.01,2013-08-17 01:13:00,
2013-08-16 18:18:00,57.8,48.1,29.93,NW,322,18.0,24.0,70,0.00,,---,0.01,VWS V14.01,2013-08-17 01:18:00,
2013-08-16 18:23:00,57.4,48.1,29.93,NW,315,18.0,26.0,71,0.00,,---,0.01,VWS V14.01,2013-08-17 01:23:00,
2013-08-16 18:28:00,57.3,48.0,29.93,NW,309,23.0,26.0,71,0.00,,---,0.01,VWS V14.01,2013-08-17 01:28:00,
2013-08-16 18:30:00,57.3,48.0,29.93,North,360,18.0,26.0,71,0.00,,---,0.01,VWS V14.01,2013-08-17 01:30:00,
2013-08-16 18:33:00,57.0,47.7,29.93,NW,317,20.0,23.0,71,0.00,,---,0.01,VWS V14.01,2013-08-17 01:33:00,
2013-08-16 18:38:00,56.9,47.2,29.93,NNW,336,18.0,23.0,70,0.00,,---,0.01,VWS V14.01,2013-08-17 01:38:00,
2013-08-16 18:43:00,56.8,47.1,29.93,NW,320,18.0,23.0,70,0.00,,---,0.01,VWS V14.01,2013-08-17 01:43:00,
2013-08-16 18:48:00,56.7,47.0,29.93,NW,326,19.0,23.0,70,0.00,,---,0.01,VWS V14.01,2013-08-17 01:48:00,
2013-08-16 18:53:00,56.5,46.8,29.93,NNW,329,14.0,25.0,70,0.00,,---,0.01,VWS V14.01,2013-08-17 01:53:00,
2013-08-16 18:58:00,56.6,46.9,29.93,NW,312,15.0,25.0,70,0.00,,---,0.01,VWS V14.01,2013-08-17 01:58:00,
2013-08-16 19:00:00,56.6,46.9,29.93,North,360,18.0,25.0,70,0.00,,---,0.01,VWS V14.01,2013-08-17 02:00:00,
2013-08-16 19:03:00,56.6,46.9,29.93,NW,317,18.0,23.0,70,0.00,,---,0.01,VWS V14.01,2013-08-17 02:03:00,
2013-08-16 19:08:00,56.6,46.9,29.93,NNW,340,21.0,23.0,70,0.00,,---,0.01,VWS V14.01,2013-08-17 02:08:00,
2013-08-16 19:13:00,56.5,46.8,29.93,NW,313,17.0,23.0,70,0.00,,---,0.01,VWS V14.01,2013-08-17 02:13:00,
2013-08-16 19:18:00,56.5,46.8,29.93,NNW,327,19.0,23.0,70,0.00,,---,0.01,VWS V14.01,2013-08-17 02:18:00,
2013-08-16 19:23:00,56.4,46.8,29.93,NNW,338,16.0,23.0,70,0.00,,---,0.01,VWS V14.01,2013-08-17 02:23:00,
2013-08-16 19:28:00,56.4,46.8,29.93,NW,306,17.0,23.0,70,0.00,,---,0.01,VWS V14.01,2013-08-17 02:28:00,
2013-08-16 19:30:00,56.4,46.8,29.93,NW,306,17.0,23.0,70,0.00,,---,0.01,VWS V14.01,2013-08-17 02:30:00,
2013-08-16 19:33:00,56.5,46.8,29.93,NW,320,15.0,20.0,70,0.00,,---,0.01,VWS V14.01,2013-08-17 02:33:00,
2013-08-16 19:38:00,56.5,46.8,29.93,NW,310,12.0,20.0,70,0.00,,---,0.01,VWS V14.01,2013-08-17 02:38:00,
2013-08-16 19:43:00,56.5,46.8,29.93,NW,322,12.0,20.0,70,0.00,,---,0.01,VWS V14.01,2013-08-17 02:43:00,
2013-08-16 19:48:00,56.4,46.8,29.93,NW,311,12.0,20.0,70,0.00,,---,0.01,VWS V14.01,2013-08-17 02:48:00,
2013-08-16 19:54:00,56.4,46.8,29.93,NW,313,18.0,20.0,70,0.00,,---,0.01,VWS V14.01,2013-08-17 02:54:00,
2013-08-16 19:59:00,56.3,46.7,29.94,NNW,327,17.0,18.0,70,0.00,,---,0.01,VWS V14.01,2013-08-17 02:59:00,
2013-08-16 20:00:00,56.3,46.7,29.94,NW,317,18.0,22.0,70,0.00,,---,0.01,VWS V14.01,2013-08-17 03:00:00,
2013-08-16 20:04:00,56.3,46.7,29.94,WNW,286,13.0,22.0,70,0.00,,---,0.01,VWS V14.01,2013-08-17 03:04:00,
2013-08-16 20:09:00,56.3,46.7,29.93,NW,326,11.0,22.0,70,0.00,,---,0.01,VWS V14.01,2013-08-17 03:09:00,
2013-08-16 20:14:00,56.3,46.7,29.93,NW,317,13.0,23.0,70,0.00,,---,0.01,VWS V14.01,2013-08-17 03:14:00,
2013-08-16 20:19:00,56.3,46.7,29.94,NNW,336,13.0,23.0,70,0.00,,---,0.01,VWS V14.01,2013-08-17 03:19:00,
2013-08-16 20:24:00,56.3,46.7,29.94,NNW,338,19.0,23.0,70,0.00,,---,0.01,VWS V14.01,2013-08-17 03:24:00,
2013-08-16 20:29:00,56.3,46.7,29.94,NW,318,16.0,17.0,70,0.00,,---,0.01,VWS V14.01,2013-08-17 03:29:00,
2013-08-16 20:30:00,56.3,46.7,29.94,NW,319,17.0,23.0,70,0.00,,---,0.01,VWS V14.01,2013-08-17 03:30:00,
2013-08-16 20:34:00,56.2,46.6,29.94,NW,313,13.0,22.0,70,0.00,,---,0.01,VWS V14.01,2013-08-17 03:34:00,
2013-08-16 20:39:00,56.2,46.6,29.94,NNW,327,15.0,22.0,70,0.00,,---,0.01,VWS V14.01,2013-08-17 03:39:00,
2013-08-16 20:44:00,56.2,46.6,29.94,NW,319,11.0,22.0,70,0.00,,---,0.01,VWS V14.01,2013-08-17 03:44:00,
2013-08-16 20:49:00,56.1,46.5,29.94,NW,311,11.0,22.0,70,0.00,,---,0.01,VWS V14.01,2013-08-17 03:49:00,
2013-08-16 20:54:00,56.1,46.5,29.94,NW,319,11.0,22.0,70,0.00,,---,0.01,VWS V14.01,2013-08-17 03:54:00,
2013-08-16 20:59:00,56.0,46.4,29.95,NW,323,9.0,15.0,70,0.00,,---,0.01,VWS V14.01,2013-08-17 03:59:00,
2013-08-16 21:00:00,56.0,46.4,29.95,NW,305,10.0,22.0,70,0.00,,---,0.01,VWS V14.01,2013-08-17 04:00:00,
2013-08-16 21:01:00,56.0,46.4,29.95,NW,319,15.0,20.0,70,0.00,,---,0.01,VWS V14.01,2013-08-17 04:01:00,
2013-08-16 21:03:00,56.0,46.4,29.95,NW,323,12.0,21.0,70,0.00,,---,0.01,VWS V14.01,2013-08-17 04:03:00,
2013-08-16 21:08:00,55.8,46.2,29.95,NW,321,12.0,21.0,70,0.00,,---,0.01,VWS V14.01,2013-08-17 04:08:00,
2013-08-16 21:13:00,55.8,46.2,29.94,NW,318,15.0,22.0,70,0.00,,---,0.01,VWS V14.01,2013-08-17 04:13:00,
2013-08-16 21:19:00,55.7,46.1,29.94,NW,313,13.0,25.0,70,0.00,,---,0.01,VWS V14.01,2013-08-17 04:19:00,
2013-08-16 21:24:00,55.7,46.1,29.94,NW,318,15.0,25.0,70,0.00,,---,0.01,VWS V14.01,2013-08-17 04:24:00,
2013-08-16 21:29:00,55.6,46.0,29.95,NNW,327,15.0,21.0,70,0.00,,---,0.01,VWS V14.01,2013-08-17 04:29:00,
2013-08-16 21:30:00,55.7,46.1,29.95,NNW,339,21.0,25.0,70,0.00,,---,0.01,VWS V14.01,2013-08-17 04:30:00,
2013-08-16 21:34:00,55.5,45.9,29.95,NW,313,19.0,23.0,70,0.00,,---,0.01,VWS V14.01,2013-08-17 04:34:00,
2013-08-16 21:39:00,55.5,45.9,29.95,NW,326,15.0,23.0,70,0.00,,---,0.01,VWS V14.01,2013-08-17 04:39:00,
2013-08-16 21:44:00,55.5,45.9,29.95,WNW,284,10.0,23.0,70,0.00,,---,0.01,VWS V14.01,2013-08-17 04:44:00,
2013-08-16 21:49:00,55.5,45.9,29.95,WNW,303,16.0,23.0,70,0.00,,---,0.01,VWS V14.01,2013-08-17 04:49:00,
2013-08-16 21:54:00,55.4,45.8,29.95,NNW,339,16.0,23.0,70,0.00,,---,0.01,VWS V14.01,2013-08-17 04:54:00,
2013-08-16 21:59:00,55.3,45.7,29.95,NW,318,17.0,18.0,70,0.00,,---,0.01,VWS V14.01,2013-08-17 04:59:00,
2013-08-16 22:00:00,55.3,45.7,29.95,NW,318,16.0,23.0,70,0.00,,---,0.01,VWS V14.01,2013-08-17 05:00:00,
2013-08-16 22:04:00,55.3,45.7,29.95,NW,317,15.0,24.0,70,0.00,,---,0.01,VWS V14.01,2013-08-17 05:04:00,
2013-08-16 22:09:00,55.3,45.7,29.95,NW,319,12.0,24.0,70,0.00,,---,0.01,VWS V14.01,2013-08-17 05:09:00,
2013-08-16 22:14:00,55.2,45.6,29.95,NW,322,19.0,24.0,70,0.00,,---,0.01,VWS V14.01,2013-08-17 05:14:00,
2013-08-16 22:19:00,55.3,45.7,29.95,North,360,14.0,24.0,70,0.00,,---,0.01,VWS V14.01,2013-08-17 05:19:00,
2013-08-16 22:24:00,55.3,45.7,29.95,NW,313,9.0,25.0,70,0.00,,---,0.01,VWS V14.01,2013-08-17 05:24:00,
2013-08-16 22:29:00,55.3,45.7,29.95,NW,311,14.0,19.0,70,0.00,,---,0.01,VWS V14.01,2013-08-17 05:29:00,
2013-08-16 22:30:00,55.3,45.7,29.95,NW,317,15.0,25.0,70,0.00,,---,0.01,VWS V14.01,2013-08-17 05:30:00,
2013-08-16 22:34:00,55.3,45.7,29.94,NW,313,6.0,23.0,70,0.00,,---,0.01,VWS V14.01,2013-08-17 05:34:00,
2013-08-16 22:39:00,55.4,45.8,29.95,NW,311,13.0,23.0,70,0.00,,---,0.01,VWS V14.01,2013-08-17 05:39:00,
2013-08-16 22:44:00,55.4,45.8,29.95,WNW,283,14.0,23.0,70,0.00,,---,0.01,VWS V14.01,2013-08-17 05:44:00,
2013-08-16 22:49:00,55.4,45.8,29.95,North,360,11.0,23.0,70,0.00,,---,0.01,VWS V14.01,2013-08-17 05:49:00,
2013-08-16 22:54:00,55.5,45.9,29.95,NW,323,12.0,23.0,70,0.00,,---,0.01,VWS V14.01,2013-08-17 05:54:00,
2013-08-16 22:59:00,55.6,46.0,29.95,NW,313,12.0,20.0,70,0.00,,---,0.01,VWS V14.01,2013-08-17 05:59:00,
2013-08-16 23:00:00,55.6,46.0,29.95,NW,315,12.0,23.0,70,0.00,,---,0.01,VWS V14.01,2013-08-17 06:00:00,
2013-08-16 23:04:00,55.6,46.0,29.95,NW,319,9.0,20.0,70,0.00,,---,0.01,VWS V14.01,2013-08-17 06:04:00,
2013-08-16 23:09:00,55.5,45.9,29.95,NW,311,12.0,20.0,70,0.00,,---,0.01,VWS V14.01,2013-08-17 06:09:00,
2013-08-16 23:14:00,55.5,45.9,29.95,NW,306,7.0,20.0,70,0.00,,---,0.01,VWS V14.01,2013-08-17 06:14:00,
2013-08-16 23:19:00,55.6,46.0,29.95,NW,311,8.0,20.0,70,0.00,,---,0.01,VWS V14.01,2013-08-17 06:19:00,
2013-08-16 23:24:00,55.6,46.0,29.95,NW,320,13.0,20.0,70,0.00,,---,0.01,VWS V14.01,2013-08-17 06:24:00,
2013-08-16 23:29:00,55.6,46.0,29.96,NNW,340,2.0,6.0,70,0.00,,---,0.01,VWS V14.01,2013-08-17 06:29:00,
2013-08-16 23:30:00,55.5,45.9,29.96,NW,309,6.0,20.0,70,0.00,,---,0.01,VWS V14.01,2013-08-17 06:30:00,
2013-08-16 23:34:00,55.5,45.9,29.96,NE,48,5.0,12.0,70,0.00,,---,0.01,VWS V14.01,2013-08-17 06:34:00,
2013-08-16 23:39:00,55.6,46.0,29.96,NW,319,7.0,15.0,70,0.00,,---,0.01,VWS V14.01,2013-08-17 06:39:00,
2013-08-16 23:44:00,55.6,46.0,29.95,WNW,283,0.0,19.0,70,0.00,,---,0.01,VWS V14.01,2013-08-17 06:44:00,
2013-08-16 23:49:00,55.6,46.0,29.95,WNW,283,0.0,19.0,70,0.00,,---,0.01,VWS V14.01,2013-08-17 06:49:00,
2013-08-16 23:54:00,55.6,46.0,29.95,SW,229,1.0,19.0,70,0.00,,---,0.01,VWS V14.01,2013-08-17 06:54:00,
2013-08-16 23:59:00,55.6,46.0,29.96,West,277,10.0,15.0,70,0.00,,---,0.00,VWS V14.01,2013-08-17 06:59:00,